Location: ????????
(37.6846°N, 24.0673°E)
Time: 15:02:49
(UTC+00:00)

COBE Rocket - Pass Details

Date: 14 July 2020
Orbit: 679 x 783 km, 97.1° (Epoch: 03 August)

Event Time Altitude Azimuth Distance (km) Brightness Sun altitude
Exits shadow 00:44:24 27° 148° (SSE) 1,407 5.1 -22.8°
Maximum altitude 00:47:02 63° 76° (ENE) 835 4.3 -22.5°
Drops below altitude 10° 00:51:54 10° 356° (N) 2,239 7.1 -21.9°
Sets 00:54:10 0° 353° (N) 3,148 7.9 -21.6°
